sat.trackr.live / text

‹ back to catalog

STARLINK-34943

NORAD 65366 · 2025-190R

PAYLOAD ACTIVE UNKNOWN

§ Identity

Operator
Country
US
Launch date
2025-08-28
Launch site
AFETR
Launch vehicle
Mass (kg)
RCS (m²)

Purposes: comms

External: N2YO · Heavens-Above · Gunter

§ Orbital elements

Epoch: 2026-05-25T02:34:27.739200Z

Period
93.90 min
Inclination
53.1582°
Eccentricity
0.0001223
Mean motion
15.33566592 rev/d
Perigee alt
464.3 km
Apogee alt
466.0 km
Semi-major
6,843.3 km
B*
4.2729e-4
RAAN
173.3285°
Arg perigee
95.1362°
Mean anomaly
264.9780°
Rev number
4,098

§ Raw data

STARLINK-349431 65366U 25190R   26145.10726550  .00013713  00000+0  42729-3 0  99982 65366  53.1582 173.3285 0001223  95.1362 264.9780 15.33566592 40987

JSON: /api/v1/satellites/65366 · /tle

For live sub-satellite position, see the globe view (requires WebGL).

§ Visibility from observer

Set your observer location to see the next 7 days of passes ≥ 10°. The values pass through the URL so the page stays shareable.

No JS? Fill the form by hand. The geolocation button needs JavaScript.